Windsor Locks, CT

1:47 AM EDT on March 27, 2017 (GMT -0400)
Bradley International

Weather History for KBDL - April, 2013

Change the Weather History Date:

Monday, April 15, 2013

  Actual Average Record
Temperature  
Mean Temperature 46 °F 49 °F  
Max Temperature 60 °F 60 °F 88 °F (1941)
Min Temperature 31 °F 38 °F 24 °F (1957)
Degree Days  
Heating Degree Days 19 16  
Month to date heating degree days 287 279  
Since 1 July heating degree days 5299 5560  
Cooling Degree Days 0 0  
Month to date cooling degree days 0 0  
Year to date cooling degree days 0 0  
Moisture  
Dew Point 28 °F    
Average Humidity 55    
Maximum Humidity 78    
Minimum Humidity 31    
Precipitation  
Precipitation 0.00 in 0.12 in 3.21 in (2007)
Month to date precipitation 0.86 1.90  
Year to date precipitation 8.97 11.64  
Snow  
Snow 0.00 in 0.10 in T in (2014)
Month to date snowfall 0.0 1.1  
Since 1 July snowfall 56.9 40.2  
Snow Depth 0.00 in    
Sea Level Pressure  
Sea Level Pressure 30.32 in    
Wind  
Wind Speed 6 mph (South)    
Max Wind Speed 17 mph    
Max Gust Speed 21 mph    
Visibility 10 miles    
Events      
T = Trace of Precipitation, MM = Missing Value Source: NWS Daily Summary

Daily Weather History Graph

Daily Weather History Graph

Search for Another Location

Airport or City:

Trip Planner

Search our weather history database for the weather conditions in past years. The results will help you decide how hot, cold, wet, or windy it might be!

Date:

Astronomy

Apr. 15, 2013 Rise Set
Actual Time 6:10 AM EDT 7:32 PM EDT
Civil Twilight 5:41 AM EDT 8:01 PM EDT
Nautical Twilight 5:06 AM EDT 8:36 PM EDT
Astronomical Twilight 4:29 AM EDT 9:13 PM EDT
Moon 9:30 AM EDT (4/15) No Moon Set
Length of Visible Light 14h 20m
Length of Day
13h 22m
Waxing Crescent, 24% of the Moon is Illuminated
Apr 15
Waxing Crescent
Apr 18
First Quarter
Apr 25
Full
May 2
Last Quarter
May 9
New

Hourly Weather History & Observations

Time (EDT) Temp. Windchill Dew Point Humidity Pressure Visibility Wind Dir Wind Speed Gust Speed Precip Events Conditions
12:51 AM 33.1 °F 30.0 °F 24.1 °F 70% 30.24 in 10.0 mi NNE 3.5 mph - N/A   Scattered Clouds
1:51 AM 34.0 °F 28.8 °F 25.0 °F 70% 30.24 in 10.0 mi NE 5.8 mph - N/A   Scattered Clouds
2:51 AM 34.0 °F - 25.0 °F 70% 30.24 in 10.0 mi Calm Calm - N/A   Mostly Cloudy
3:51 AM 30.9 °F - 25.0 °F 79% 30.25 in 10.0 mi Calm Calm - N/A   Mostly Cloudy
4:51 AM 32.0 °F - 26.1 °F 79% 30.27 in 10.0 mi Calm Calm - N/A   Mostly Cloudy
5:51 AM 32.0 °F 27.5 °F 26.1 °F 79% 30.31 in 10.0 mi WNW 4.6 mph - N/A   Overcast
6:51 AM 34.0 °F - 26.1 °F 73% 30.35 in 10.0 mi Calm Calm - N/A   Overcast
7:51 AM 37.0 °F 34.5 °F 28.0 °F 70% 30.36 in 10.0 mi NNE 3.5 mph - N/A   Overcast
8:51 AM 41.0 °F 37.1 °F 27.0 °F 57% 30.37 in 10.0 mi NNE 5.8 mph - N/A   Overcast
9:51 AM 44.1 °F - 28.0 °F 53% 30.39 in 10.0 mi Calm Calm - N/A   Overcast
10:51 AM 46.9 °F - 28.0 °F 48% 30.38 in 10.0 mi Calm Calm - N/A   Overcast
11:51 AM 51.1 °F - 27.0 °F 39% 30.36 in 10.0 mi South 6.9 mph - 0.01 in   Overcast
12:51 PM 52.0 °F - 27.0 °F 38% 30.35 in 10.0 mi Variable 4.6 mph - N/A   Overcast
1:51 PM 54.0 °F - 26.1 °F 34% 30.34 in 10.0 mi SSE 4.6 mph - N/A   Overcast
2:51 PM 55.9 °F - 27.0 °F 33% 30.32 in 10.0 mi SE 8.1 mph - N/A   Mostly Cloudy
3:51 PM 59.0 °F - 28.0 °F 31% 30.29 in 10.0 mi South 12.7 mph - N/A   Mostly Cloudy
4:51 PM 59.0 °F - 28.9 °F 32% 30.28 in 10.0 mi South 10.4 mph - N/A   Scattered Clouds
5:51 PM 57.9 °F - 30.0 °F 35% 30.29 in 10.0 mi South 12.7 mph - N/A   Scattered Clouds
6:51 PM 55.9 °F - 28.9 °F 36% 30.32 in 10.0 mi SSW 15.0 mph - N/A   Scattered Clouds
7:51 PM 53.1 °F - 28.9 °F 40% 30.32 in 10.0 mi South 11.5 mph - N/A   Partly Cloudy
8:51 PM 50.0 °F - 30.0 °F 46% 30.35 in 10.0 mi South 9.2 mph - N/A   Partly Cloudy
9:51 PM 48.0 °F - 30.0 °F 50% 30.36 in 10.0 mi South 8.1 mph - N/A   Scattered Clouds
10:51 PM 46.0 °F 43.1 °F 32.0 °F 58% 30.38 in 10.0 mi SSW 5.8 mph - N/A   Scattered Clouds
11:51 PM 45.0 °F 40.1 °F 33.1 °F 63% 30.38 in 10.0 mi SSW 9.2 mph - N/A   Scattered Clouds